Regional Weather Roundup
Issued by NWS

Home | Current Version | Previous Version | Text Only | Print | Product List | Glossary Off
Versions: 1 2 3 4 5 6 7 8 9 10 11 12 13 14 15 16 17 18 19 20 21 22 23 24 25 26 27 28 29 30 31 32 33 34 35 36 37 38 39 40 41 42 43 44 45 46 47 48 49 50

000
ASUS43 KDMX 301207
RWRIA

WEATHER ROUNDUP FOR IOWA
NATIONAL WEATHER SERVICE DES MOINES IA
700 AM CDT MON MAR 30 2015

NOTE: "FAIR" INDICATES FEW OR NO CLOUDS BELOW 12,000 FEET WITH NO
SIGNIFICANT WEATHER AND/OR OBSTRUCTIONS TO VISIBILITY.

* - THESE STATIONS ARE NOT NWS STATIONS...THUS NOT UNDER NWS
QUALITY CONTROL.  THEY ALSO DO NOT REPORT WEATHER SUCH
AS PRECIPITATION OR FOG.

IAZ001>003-012>014-020>022-031>034-043>046-301300-
   NORTHWEST IOWA

CITY           SKY/WX    TMP DP  RH WIND       PRES   REMARKS
CARROLL *      PTCLDY    34  23  64 W9        30.08S WCI  26
CHEROKEE *     CLEAR     32  26  76 S5        30.06S WCI  28
DENISON *      MOCLDY    30  25  80 CALM      30.07S
LE MARS *      PTCLDY    32  23  69 CALM      30.05F
ORANGE CITY *  CLEAR     36  23  60 S5        30.04S WCI  32
SHELDON *      CLEAR     34  23  64 S5        30.03S WCI  30
SIOUX CITY     CLEAR     31  22  69 E9        30.06S WCI  23
6HR MIN TEMP:  29; 6HR MAX TEMP:  36;

SPENCER        CLOUDY    35  26  69 SW7       30.05R WCI  29
6HR MIN TEMP:  28; 6HR MAX TEMP:  36;

STORM LAKE *   CLEAR     37  23  56 SW8       30.07R WCI  31
$$

IAZ055>058-069>071-079>083-090>094-301300-
   SOUTHWEST IOWA

CITY           SKY/WX    TMP DP  RH WIND       PRES   REMARKS
ATLANTIC *     PTCLDY    30  25  80 CALM      30.11S
AUDUBON *      CLEAR     32  25  74 CALM      30.11R
CLARINDA *     CLEAR     30  28  93 CALM      30.15F
COUNCIL BLFS * CLEAR     43  25  49 SW9       30.10S
CRESTON *      CLEAR     32  25  74 SW7       30.13R WCI  26
HARLAN  *      CLEAR     30  28  93 S3        30.13S
LAMONI         PTCLDY    38  26  62 W6        30.13R WCI  33
6HR MIN TEMP:  35; 6HR MAX TEMP:  42;

RED OAK *      MOCLDY    32  27  80 CALM      30.13S
SHENANDOAH *   CLEAR     30  30 100 CALM      30.14S
$$

IAZ047>049-059>061-072>074-084-301300-
   CENTRAL IOWA

CITY           SKY/WX    TMP DP  RH WIND       PRES   REMARKS
AMES           MOCLDY    32  24  72 SW9       30.09R WCI  24
6HR MIN TEMP:  30; 6HR MAX TEMP:  34;

ANKENY *       CLEAR     30  25  80 SE3       30.11R
CHARITON *     PTCLDY    37  25  60 SW7       30.12R WCI  32
DES MOINES     PTCLDY    37  24  59 SW5       30.11R WCI  33
6HR MIN TEMP:  36; 6HR MAX TEMP:  44;

GRINNELL*      PTCLDY    32  25  74 SW8       30.10R WCI  25
KNOXVILLE *    CLEAR     36  25  64 SW8       30.10R WCI  29
MARSHALLTOWN   PTCLDY    33  25  72 W7        30.07R WCI  27
6HR MIN TEMP:  30; 6HR MAX TEMP:  37;

PELLA *        PTCLDY    37  29  73 SW3       30.12R
PERRY *          N/A     32  25  74 SW6       30.10R WCI  26
$$

IAZ004>006-015-016-023>025-035-036-301300-
   NORTH CENTRAL IOWA

CITY           SKY/WX    TMP DP  RH WIND       PRES   REMARKS
ALGONA *       MOCLDY    37  27  65 SW13      30.06R WCI  29
CLARION *      CLEAR     30  27  86 S6        30.07R WCI  24
ESTHERVILLE    CLOUDY    37  24  59 SW13      30.02R WCI  29
6HR MIN TEMP:  30; 6HR MAX TEMP:  38;

FORT DODGE *   MOCLDY    36  23  60 SW6       30.08R WCI  31
MASON CITY     PTCLDY    38  26  62 W13       30.05R WCI  30
6HR MIN TEMP:  32; 6HR MAX TEMP:  38;

FOREST CITY *  CLEAR     32  27  80 SW5       30.04R WCI  27
IOWA FALLS *     N/A     36  26  68 SW12      30.08R WCI  27
$$

IAZ007>011-017>019-026>030-037>042-050>054-066-301300-
   NORTHEAST IOWA

CITY           SKY/WX    TMP DP  RH WIND       PRES   REMARKS
CEDAR RAPIDS   CLEAR     32  25  75 SW8       30.06S WCI  25
6HR MIN TEMP:  29; 6HR MAX TEMP:  36;

CHARLES CITY * PTCLDY    37  27  65 W13       30.04R WCI  29
CLINTON *      CLEAR     28  25  86 W6        30.10R WCI  22
DECORAH *      CLEAR     36  27  69 CALM      30.00R
DUBUQUE        CLEAR     30  26  85 SW6       30.04R WCI  24
6HR MIN TEMP:  30; 6HR MAX TEMP:  39;

MONTICELLO *   CLEAR     28  27  93 CALM      30.06R
OELWEIN *      CLEAR     32  27  80 W7        30.05R WCI  26
WATERLOO       CLEAR     33  26  75 W3        30.05R
6HR MIN TEMP:  26; 6HR MAX TEMP:  40;

$$

IAZ064-065-067-068-078-301300-
   EAST CENTRAL IOWA

CITY           SKY/WX    TMP DP  RH WIND       PRES   REMARKS
DAVENPORT      CLEAR     32  26  78 W9        30.09R WCI  24
6HR MIN TEMP:  29; 6HR MAX TEMP:  34;

IOWA CITY      CLEAR     28  23  81 CALM      30.10S
6HR MIN TEMP:  28; 6HR MAX TEMP:  37;

MT. PLEASANT * CLEAR     33  26  75 SW7       30.12S WCI  26
MUSCATINE *    CLEAR     37  27  65 SW5       30.11R WCI  34
QUAD CITIES    CLEAR     31  26  82 SW5       30.09R WCI  26
6HR MIN TEMP:  29; 6HR MAX TEMP:  44;

$$

IAZ062-063-075>077-085>089-095>099-301300-
   SOUTHEAST IOWA

CITY           SKY/WX    TMP DP  RH WIND       PRES   REMARKS
BURLINGTON     CLEAR     38  27  64 W6        30.12R WCI  33
6HR MIN TEMP:  33; 6HR MAX TEMP:  44;

FAIRFIELD *    CLEAR     36  25  64 SW7       30.11F WCI  30
FORT MADISON * CLEAR     37  27  65 SW6       30.14R WCI  33
KEOKUK *       CLEAR     36  28  75 MISG      30.14R
OSKALOOSA *      N/A     31  24  75 SW7       30.11S WCI  24
CENTERVILLE *  CLEAR     32  27  80 SW6       30.14R WCI  26
OTTUMWA        PTCLDY    32  23  69 SW5       30.11S WCI  27
6HR MIN TEMP:  30; 6HR MAX TEMP:  40;

WASHINGTON *   CLEAR     34  28  80 W8        30.11R WCI  27
$$

ABBREVIATIONS USED IN REMARKS
   TC - TEMPERATURES IN CELSIUS
  WCI - WIND CHILL INDEX
   HX - HEAT INDEX
  VSB - VISIBILITY
$$



USA.gov is the U.S. government's official web portal to all federal, state and local government web resources and services.